Location: Newark
(25.6108°S, 54.5803°W)
Time: 21:20:40
(UTC+00:00)

Courier 1B - Pass Details

Date: 29 October 2020
Orbit: 962 x 1209 km, 28.3° (Epoch: 24 November)

Event Time Altitude Azimuth Distance (km) Brightness Sun altitude
Rises 05:52:39 0° 257° (WSW) 4,111 - -36.3°
Reaches altitude 10° 05:55:31 10° 257° (WSW) 3,153 - -35.8°
Maximum altitude 06:03:28 89° 343° (NNW) 1,208 - -34.5°
Exits shadow 06:04:27 71° 73° (ENE) 1,260 8.0 -34.3°
Drops below altitude 10° 06:11:14 10° 75° (ENE) 3,084 10.5 -33.1°
Sets 06:13:59 0° 75° (ENE) 4,017 11.2 -32.6°
